(135312) = 2001 SS266

Discovered at Desert Eagle on 2001-09-25 by W. K. Y. Yeung.

Orbit

Orbit type: Main Belt

Note: WebGL enabled browser required.

epoch2023-09-13.0
epoch JD2460200.5
perihelion date2023-01-26.82697
perihelion JD2459971.32697
argument of perihelion (°)181.61783
ascending node (°)193.40157
inclination (°)8.13811
eccentricity0.1948135
perihelion distance (AU)2.4711013
Tisserand w.r.t. Jupiter3.2
ΔV w.r.t. Earth (km/sec)10.2
semimajor axis (AU)3.0689801
mean anomaly (°)42.01228
mean daily motion (°/day)0.18332120
aphelion distance (AU)3.667
period (years)5.38
P-vector [x]0.96590404
P-vector [y]0.23909787
P-vector [z]0.09930554
Q-vector [x]-0.25681295
Q-vector [y]0.93344184
Q-vector [z]0.25046646
absolute magnitude15.24
phase slope0.15
uncertainty0
referenceMPEC 2024-B03
observations used999
oppositions18
arc length (days)8147
first opposition used2001
last opposition used2024
residual rms (arc-secs)0.67
perturbers coarse indicatorM-v
perturbers precise indicator003Ek
first observation date used2001-09-25.0
last observation date used2024-01-15.0
computer nameMPCLINUX
JD of orbit computation2456819.666548
perihelion JD uncertainty (days)8.8259E-05
argument of perihelion uncertainty (°)3.6483E-05
ascending node uncertainty (°)3.2574E-05
inclination uncertainty (°)5.8678E-06
eccentricity uncertainty 4.9170E-08
perihelion distance uncertainty (AU)1.4927E-07
Minimum Orbit Intersection Distances (in AU)
for orbit epoch: 2460200.5, reference: E2024-B03
Mercury2.12517
Venus1.74676
Earth1.47138
Mars1.0531
Jupiter1.78815
Saturn5.87808
Uranus14.8343
Neptune27.0222

Observations

1017 total observations over interval: 2001 09 25.38977 – 2024 01 15.428151
These data are available for download (format description).

Date (UT) J2000 RA J2000 Dec Magn Location Ref
2001 09 25.38977 03 23 36.47 +14 20 46.4 20.2 V 333 – Desert Eagle Observatory MPS 36822
2001 09 25.40285 03 23 36.43 +14 20 43.2 20.0 V 333 – Desert Eagle Observatory MPS 36822
2001 09 25.41755 03 23 36.43 +14 20 39.1 20.1 V 333 – Desert Eagle Observatory MPS 36822
2001 09 25.43060 03 23 36.37 +14 20 35.8 19.6 V 333 – Desert Eagle Observatory MPS 36822
2001 09 25.44527 03 23 36.40 +14 20 32.3 19.6 V 333 – Desert Eagle Observatory MPS 36822
2001 09 25.45829 03 23 36.34 +14 20 28.3 19.6 V 333 – Desert Eagle Observatory MPS 36822
2001 09 26.40276 03 23 37.27 +14 16 19.7 19.7   704 – Lincoln Laboratory ETS, New Mexico MPS 49504
2001 09 26.41726 03 23 37.24 +14 16 15.8 20.2   704 – Lincoln Laboratory ETS, New Mexico MPS 49504
2001 09 26.43412 03 23 37.08 +14 16 11.1 20.6 V 333 – Desert Eagle Observatory MPS 36822
2001 09 26.46087 03 23 37.22 +14 16 02.7 19.8   704 – Lincoln Laboratory ETS, New Mexico MPS 49504
2001 09 26.46189 03 23 37.07 +14 16 02.0 20.3 V 333 – Desert Eagle Observatory MPS 36822
2001 09 27.37153 03 23 36.55 +14 11 55.9 19.3 V 333 – Desert Eagle Observatory MPS 36822
2001 09 27.39920 03 23 36.42 +14 11 48.9 19.7 V 333 – Desert Eagle Observatory MPS 36822
2001 09 27.42743 03 23 36.38 +14 11 41.3 19.2 V 333 – Desert Eagle Observatory MPS 36822
2001 10 13.34000 03 19 47.00 +12 45 13.5 19.7   704 – Lincoln Laboratory ETS, New Mexico MPS 38290
2001 10 13.35642 03 19 46.48 +12 45 07.3 19.5   704 – Lincoln Laboratory ETS, New Mexico MPS 38290
2001 10 13.38805 03 19 45.66 +12 44 54.4 19.5   704 – Lincoln Laboratory ETS, New Mexico MPS 38291
2001 10 13.40072 03 19 45.23 +12 44 51.2 18.9 R 699 – Lowell Observatory-LONEOS MPS 39413
2001 10 13.42574 03 19 44.55 +12 44 41.2   699 – Lowell Observatory-LONEOS MPS 39413
2001 10 13.45075 03 19 43.79 +12 44 31.9   699 – Lowell Observatory-LONEOS MPS 39413
2001 10 13.47569 03 19 43.13 +12 44 22.6   699 – Lowell Observatory-LONEOS MPS 39413
2001 10 17.32444 03 17 50.19 +12 20 01.2 19.4   704 – Lincoln Laboratory ETS, New Mexico MPS 39413
2001 10 17.34032 03 17 49.65 +12 19 55.1 19.7   704 – Lincoln Laboratory ETS, New Mexico MPS 39413
2001 10 17.35632 03 17 49.14 +12 19 48.5 19.6   704 – Lincoln Laboratory ETS, New Mexico MPS 39413
2001 10 17.37220 03 17 48.58 +12 19 42.2 19.7   704 – Lincoln Laboratory ETS, New Mexico MPS 39413
2001 10 17.38813 03 17 48.01 +12 19 36.4 19.6   704 – Lincoln Laboratory ETS, New Mexico MPS 39413
2001 10 18.31387 03 17 17.99 +12 13 35.8 18.8   704 – Lincoln Laboratory ETS, New Mexico MPS 39413
2001 10 18.32969 03 17 17.41 +12 13 29.8 19.8   704 – Lincoln Laboratory ETS, New Mexico MPS 39413
2001 10 18.36113 03 17 16.28 +12 13 17.9 19.6   704 – Lincoln Laboratory ETS, New Mexico MPS 39413
2001 10 18.37830 03 17 15.71 +12 13 11.2 19.4   704 – Lincoln Laboratory ETS, New Mexico MPS 39413
2001 10 18.47035 03 17 12.60 +12 12 35.1 19.1   644 – Palomar Mountain/NEAT MPS 40675
2001 10 18.48094 03 17 12.23 +12 12 30.7 19.0   644 – Palomar Mountain/NEAT MPS 40675
2001 10 18.49146 03 17 11.84 +12 12 26.7 18.9   644 – Palomar Mountain/NEAT MPS 40675
2001 10 22.31471 03 14 56.14 +11 47 12.5 19.5   704 – Lincoln Laboratory ETS, New Mexico MPS 40675
2001 10 22.33205 03 14 55.47 +11 47 05.1 19.3   704 – Lincoln Laboratory ETS, New Mexico MPS 40675
2001 10 22.34879 03 14 54.79 +11 46 59.0 19.1   704 – Lincoln Laboratory ETS, New Mexico MPS 40675
2001 10 22.36566 03 14 54.11 +11 46 52.8 19.5   704 – Lincoln Laboratory ETS, New Mexico MPS 40675
2001 10 24.26995 03 13 40.78 +11 34 05.7 19.3   704 – Lincoln Laboratory ETS, New Mexico MPS 40675
2001 10 24.28644 03 13 40.06 +11 33 58.0 19.2   704 – Lincoln Laboratory ETS, New Mexico MPS 40675
2001 10 24.30289 03 13 39.39 +11 33 51.5 19.9   704 – Lincoln Laboratory ETS, New Mexico MPS 40675
2001 10 24.31972 03 13 38.70 +11 33 46.0 19.6   704 – Lincoln Laboratory ETS, New Mexico MPS 40675
2001 11 09.29002 03 01 49.61 +09 48 02.4 18.7   704 – Lincoln Laboratory ETS, New Mexico MPS 40675
2001 11 09.30556 03 01 48.80 +09 47 56.5 19.2   704 – Lincoln Laboratory ETS, New Mexico MPS 40675
2001 11 09.32040 03 01 48.06 +09 47 50.1 19.0   704 – Lincoln Laboratory ETS, New Mexico MPS 40675
2001 11 09.33535 03 01 47.36 +09 47 45.8 18.7   704 – Lincoln Laboratory ETS, New Mexico MPS 40675
2001 11 09.34948 03 01 46.65 +09 47 40.4 18.8   704 – Lincoln Laboratory ETS, New Mexico MPS 40675
2001 11 15.43837 02 57 06.33 +09 11 22.0 18.8   644 – Palomar Mountain/NEAT MPS 41972
2001 11 15.45952 02 57 05.38 +09 11 14.9 18.3   644 – Palomar Mountain/NEAT MPS 41972
2001 11 15.48019 02 57 04.42 +09 11 07.9 18.8   644 – Palomar Mountain/NEAT MPS 41972
2001 11 17.22130 02 55 47.26 +09 01 30.3 18.3   704 – Lincoln Laboratory ETS, New Mexico MPS 41972
2001 11 17.23610 02 55 46.44 +09 01 26.2 19.0   704 – Lincoln Laboratory ETS, New Mexico MPS 41972
2001 11 17.25100 02 55 45.89 +09 01 21.8 18.4   704 – Lincoln Laboratory ETS, New Mexico MPS 41972
2001 11 17.26591 02 55 45.12 +09 01 16.5 18.7   704 – Lincoln Laboratory ETS, New Mexico MPS 41972
2001 11 18.21139 02 55 03.88 +08 56 13.1 18.6   704 – Lincoln Laboratory ETS, New Mexico MPS 41972
2001 11 18.22633 02 55 03.23 +08 56 09.2 19.0   704 – Lincoln Laboratory ETS, New Mexico MPS 41972
2001 11 18.22994 02 55 02.99 +08 56 08.6 18.6   704 – Lincoln Laboratory ETS, New Mexico MPS 41972
2001 11 18.24124 02 55 02.56 +08 56 04.2 19.0   704 – Lincoln Laboratory ETS, New Mexico MPS 41972
2001 11 18.24542 02 55 02.37 +08 56 01.2 18.3   704 – Lincoln Laboratory ETS, New Mexico MPS 41972
2001 11 18.25614 02 55 01.88 +08 55 59.0 18.5   704 – Lincoln Laboratory ETS, New Mexico MPS 41972
2001 11 18.26000 02 55 01.69 +08 55 57.8 18.8   704 – Lincoln Laboratory ETS, New Mexico MPS 41972
2001 11 18.27104 02 55 01.17 +08 55 54.6 19.2   704 – Lincoln Laboratory ETS, New Mexico MPS 41972
2001 11 18.27489 02 55 00.99 +08 55 52.8 19.1   704 – Lincoln Laboratory ETS, New Mexico MPS 41972
2001 11 18.28991 02 55 00.30 +08 55 49.1 19.0   704 – Lincoln Laboratory ETS, New Mexico MPS 41972
2001 11 19.25405 02 54 18.89 +08 50 46.2 18.2 R 699 – Lowell Observatory-LONEOS MPS 41972
2001 11 19.27768 02 54 17.78 +08 50 38.4   699 – Lowell Observatory-LONEOS MPS 41972
2001 11 19.30129 02 54 16.77 +08 50 30.5   699 – Lowell Observatory-LONEOS MPS 41972
2001 11 19.32474 02 54 15.74 +08 50 24.1   699 – Lowell Observatory-LONEOS MPS 41972
2001 11 19.38835 02 54 13.13 +08 50 05.1 19.4   608 – Haleakala-AMOS MPS 44029
2001 11 19.39856 02 54 12.66 +08 50 02.3 19.2   608 – Haleakala-AMOS MPS 44030
2001 11 19.40920 02 54 12.19 +08 49 59.1 19.2   608 – Haleakala-AMOS MPS 44030
2001 11 20.21038 02 53 38.41 +08 45 55.3 18.8   704 – Lincoln Laboratory ETS, New Mexico MPS 44030
2001 11 20.22205 02 53 37.93 +08 45 51.2 18.7   704 – Lincoln Laboratory ETS, New Mexico MPS 44030
2001 11 20.22534 02 53 37.70 +08 45 49.1 19.0   704 – Lincoln Laboratory ETS, New Mexico MPS 44030
2001 11 20.23656 02 53 37.13 +08 45 45.1 19.1   704 – Lincoln Laboratory ETS, New Mexico MPS 44030
2001 11 20.23993 02 53 37.13 +08 45 44.7 18.6   704 – Lincoln Laboratory ETS, New Mexico MPS 44030
2001 11 20.25214 02 53 36.47 +08 45 42.8 18.9   704 – Lincoln Laboratory ETS, New Mexico MPS 44030
2001 11 20.25543 02 53 36.40 +08 45 41.4 18.7   704 – Lincoln Laboratory ETS, New Mexico MPS 44030
2001 11 20.26996 02 53 35.74 +08 45 37.3 19.0   704 – Lincoln Laboratory ETS, New Mexico MPS 44030
2001 11 20.28189 02 53 35.24 +08 45 32.1 18.7   704 – Lincoln Laboratory ETS, New Mexico MPS 44030
2001 12 09.15079 02 43 27.73 +07 39 47.5 18.6 R 699 – Lowell Observatory-LONEOS MPS 44030
2001 12 09.17432 02 43 27.22 +07 39 44.6   699 – Lowell Observatory-LONEOS MPS 44030
2001 12 09.19798 02 43 26.69 +07 39 42.2   699 – Lowell Observatory-LONEOS MPS 44030
2001 12 09.22157 02 43 26.23 +07 39 38.6   699 – Lowell Observatory-LONEOS MPS 44030
2001 12 11.21662 02 42 48.66 +07 36 20.8 19.0   704 – Lincoln Laboratory ETS, New Mexico MPS 44030
2001 12 11.23184 02 42 48.33 +07 36 19.0 19.7   704 – Lincoln Laboratory ETS, New Mexico MPS 44030
2001 12 11.24707 02 42 48.05 +07 36 17.0 19.9   704 – Lincoln Laboratory ETS, New Mexico MPS 44030
